Location: Newark
(43.0000°N, 1.6781°W)
Time: 15:46:43
(UTC+00:00)

S-56A Canister/Altair - Visible Passes

Search period start: 24 September 2022 00:00
Search period end: 04 October 2022 00:00
Orbit: 637 x 2496 km, 38.9° (Epoch: 23 September)

Date Brightness Start Highest point End Pass type
(mag) Time Alt. Az. Time Alt. Az. Time Alt. Az.
24 Sep 10.2 02:21:01 17° SE 02:21:01 17° SE 02:23:34 10° ESE visible
24 Sep 8.8 04:18:27 21° SW 04:22:50 41° SSE 04:27:59 10° E visible
25 Sep 10.6 01:50:09 12° ESE 01:50:09 12° ESE 01:50:53 10° ESE visible
25 Sep 9.0 03:47:35 31° SSW 03:50:09 40° SSE 03:55:36 10° E visible
26 Sep 9.1 03:16:42 37° S 03:17:28 38° SSE 03:23:14 10° E visible
26 Sep 8.2 05:14:10 10° WSW 05:21:20 58° S 05:26:22 10° E visible
27 Sep 9.4 02:45:46 35° SE 02:45:46 35° SE 02:50:49 10° E visible
27 Sep 8.3 04:43:12 19° WSW 04:48:42 58° S 04:54:03 10° E visible
28 Sep 9.8 02:14:49 28° ESE 02:14:49 28° ESE 02:18:23 10° E visible
28 Sep 8.4 04:12:15 31° WSW 04:16:03 58° S 04:21:44 10° E visible
29 Sep 10.3 01:43:51 19° ESE 01:43:51 19° ESE 01:45:53 10° E visible
29 Sep 8.6 03:41:17 46° SW 03:43:20 58° S 03:49:24 10° E visible
30 Sep 10.8 01:12:53 12° E 01:12:53 12° E 01:13:19 10° E visible
30 Sep 8.7 03:10:18 56° S 03:10:33 57° SSE 03:17:02 10° E visible
30 Sep 8.3 05:07:43 13° W 05:14:37 60° S 05:19:57 10° ESE visible
01 Oct 9.1 02:39:19 49° SE 02:39:19 49° SE 02:44:39 10° E visible
01 Oct 8.3 04:36:44 23° W 04:41:58 63° S 04:47:39 10° ESE visible
02 Oct 9.7 02:08:20 35° ESE 02:08:20 35° ESE 02:12:14 10° E visible
02 Oct 8.4 04:05:45 37° WSW 04:09:15 65° S 04:15:20 10° ESE visible
03 Oct 10.3 01:37:21 23° E 01:37:21 23° E 01:39:46 10° E visible
03 Oct 8.5 03:34:47 55° SW 03:36:28 67° S 03:43:00 10° E visible
03 Oct 8.6 05:32:54 10° W 05:40:18 45° SSW 05:45:29 10° SE visible
